Find Kosmos-846

NORAD ID: 9061 Int'l Des: 1976-078 Owner: VMF Country: SU operational
LEOCIRCULARPOLAR

Live-Position

3D-Globus wird geladen...

Über Kosmos-846

Beschreibung wird geladen...

Nächste Überflüge

Passes for default location (London). Set your location on the main map for personalized predictions.

Höhenverlauf

Loading altitude history...

Zweizeiliger Elementsatz

1 9061U 76078A 26105.79154066 .00000050 00000-0 35369-4 0 9991
2 9061 82.9273 107.1076 0041116 353.7941 179.8429 13.76648059766644
Epoch: 15. Apr. 2026 • Age: 13 hours

Aktueller Status

Höhe 1010.3 km
Geschwindigkeit 7.34 km/s
Subsatellitenpunkt -58.45°S, 19.04°W
Typ other

Most Searched